STARLINK-36727, 67875

Orbit data source: Space-Track

STARLINK-36727, 67875 is a payload satellite owned by SpaceX/Seattle (US) in LEO that was launched on Fri, 20 Feb 2026 UTC via an FALCON 9 launch vehicle from the Air Force Eastern Test Range (AFETR). Payload-class satellites include a variety of spacecraft equipped with specific instruments for various scientific and technological missions. These include communications satellites like Starlink; space stations such as the ISS; scientific satellites like the Hubble; Earth observation satellites from companies like Planet Labs, Umbra, and HawkEye 360; GPS; miniature CubeSats for education and research; and military/defense satellites.

Loading next visibility...
Identifier
67875, 2026-034AB
Orbit
LEO
Country
Flag of USUS
Related business
Manufacturer
SpaceX/Seattle
Mission
Operational Commercial Communications
Bus & Motor
STARLINK V2MO, Unknown motor
Mass
575 kg wet, ~530 kg dry
Launch date (UTC)
2026-02-20 (4 months ago)
Launch vehicle
FALCON 9
Launch site
Air Force Eastern Test Range (AFETR)
Object type
Payload
Rocket body
Debris
Shape & HBR
Box + 2 Pan, 17.7 m
Radar Cross Section
36.964 m², Large (>1 m²)

Expand to show TLE details & history
Last TLE update: 17 hours ago

TLE from 17 hours ago
0 STARLINK-36727
1 67875U 26034AB  26171.14472119  .00014846  00000-0  48879-3 0  9996
2 67875  53.1598  87.5192 0001484  87.6233 272.4938 15.31727023 19730
Epoch: 2026-06-20T03:28Z
TLE epoch observation values (Epoch: 2026-06-20T03:28:23.910Z)
Latitude
-0.00006°
Longitude
127.05597°
Altitude
471.516 km
Speed
7.632 km/s
True Right ascension
05h 50m 04s
True Declination
0° 00' 00"
Sunlit
Object was in daylight at epoch
Visualization orbit readout
Latitude
Unknown
Longitude
Unknown
Altitude
Unknown
Speed
Unknown
Apparent Right ascension
Unknown
Apparent Declination
Unknown
Sunlit
N/A
Visualization observer readout
Local Sidereal Time
07:17:26
Azimuth
Unknown
Elevation
Unknown
Doppler factor
Unknown
Orbital elements
Apogee altitude
471.932 km
Perigee altitude
469.9 km
Semi-major axis
6,849.053 km
Eccentricity
0.00015
Inclination
53.1598°
RAAN
87.5192°
Arg. of periapsis
87.6233°
True anomaly
272.47681°
Mean anomaly
272.4938°
Eccentric anomaly
272.48531°
Mean motion
3.82911 °/min
Orbital period
94.02 mins
BSTAR
0.00048879
Loading maneuver chart data...
Computing Atmospheric mass density...
Loading historical data...
Loading historical data...
Loading historical data...
Loading historical data...
Loading historical data...
Loading historical data...
Loading historical data...

Documentation

Showing up to 5 results
|